User: anonymous   Login
Location: Mason Neck State Park
(38.6428°N, 77.1981°W)
Time: 18:25:13
(UTC-05:00)
Language:

Cosmos 1400 Rocket - Orbit

View from above orbital plane
View from above orbital plane
View from above satellite
View from above satellite

Ground track
Ground track

The orbit data is extracted from the following two-line orbital elements,

1 13403U 82079B   16042.16983431  .00000683  00000-0  44620-4 0  9992
2 13403  81.1698 112.6778 0035795  99.3540 261.1733 15.05988878822652
Epoch (UTC): 11 February 2016 04:04:33
Eccentricity: 0.0035795
inclination: 81.1698°
perigee height: 523 km
apogee height: 573 km
right ascension of ascending node: 112.6778°
argument of perigee: 99.3540°
revolutions per day: 15.05988878
mean anomaly at epoch: 261.1733°
orbit number at epoch: 82265

The dashed part of the orbit path shows where the satellite is in the earth's shadow,  

DLR